CW0343 Weather Reports


Display with metric or nautical units.
time (UTC)temp
F
wind
direction
speed
MPH
gust
MPH
rain 1hr
in
rain 24hr
in
rain mn
in
humidity
%
barometer
mb
20260506061806 80 29 4.0 8.0 0.00 0.00 0.00 68 1012.9
20260506061306 80 58 5.0 9.0 0.00 0.00 0.00 68 1012.8
20260506060804 80 63 5.0 10.0 0.00 0.00 0.00 68 1012.7
20260506051304 79 47 5.0 8.0 0.00 0.00 0.00 68 1012.8
20260506050305 78 44 3.0 7.0 0.00 0.00 0.00 68 1012.8
20260506044804 79 60 3.0 5.0 0.00 0.00 0.00 67 1013.0
20260506044305 79 62 4.0 6.0 0.00 0.00 0.00 67 1013.0
20260506043805 79 77 1.0 8.0 0.00 0.00 0.00 63 1013.0
20260506043304 79 2 0.0 0.0 0.00 0.00 0.00 63 1013.0
20260506042804 79 5 1.0 3.0 0.00 0.00 0.00 63 1013.0
20260506042305 79 90 3.0 3.0 0.00 0.00 0.00 63 1013.0
20260506041804 79 90 4.0 7.0 0.00 0.00 0.00 63 1013.0
20260506041305 79 3 0.0 0.0 0.00 0.00 0.00 63 1013.1
20260506040805 79 3 0.0 0.0 0.00 0.00 0.00 63 1013.0
20260506040305 79 3 0.0 0.0 0.00 0.00 0.00 63 1013.0
20260506035804 79 3 0.0 0.0 0.00 0.00 0.00 63 1013.0
20260506035306 79 3 0.0 0.0 0.00 0.00 0.00 63 1013.1
20260506034804 79 3 0.0 0.0 0.00 0.00 0.00 63 1013.0
20260506034304 79 5 0.0 1.0 0.00 0.00 0.00 63 1013.0
20260506033804 79 88 1.0 1.0 0.00 0.00 0.00 63 1013.0
20260506033305 79 88 1.0 3.0 0.00 0.00 0.00 63 1013.1
20260506032804 79 88 3.0 5.0 0.00 0.00 0.00 64 1013.2
20260506031804 79 76 2.0 9.0 0.00 0.00 0.00 63 1013.4
20260506031304 80 78 5.0 10.0 0.00 0.00 0.00 63 1013.4
20260506030804 80 112 6.0 8.0 0.00 0.00 0.00 63 1013.4
20260506030306 81 96 6.0 6.0 0.00 0.00 0.00 61 1013.4
20260506025306 81 124 1.0 5.0 0.00 0.00 0.00 61 1013.5
20260506024804 80 138 3.0 7.0 0.00 0.00 0.00 61 1013.7
20260506023805 80 135 6.0 9.0 0.00 0.00 0.00 61 1013.9
20260506023305 81 115 8.0 15.0 0.00 0.00 0.00 63 1013.9
20260506022804 80 60 3.0 9.0 0.00 0.00 0.00 63 1013.9
20260506022306 80 96 5.0 9.0 0.00 0.00 0.00 63 1014.0
20260506021304 80 3 0.0 8.0 0.00 0.00 0.00 62 1014.3
20260506020805 80 92 8.0 8.0 0.00 0.00 0.00 62 1014.3
20260506020304 80 92 8.0 9.0 0.00 0.00 0.00 62 1014.4
20260506015804 80 82 3.0 9.0 0.00 0.00 0.00 61 1014.4
20260506015306 80 96 7.0 12.0 0.00 0.00 0.00 61 1014.6
20260506014805 80 132 4.0 8.0 0.00 0.00 0.00 61 1014.6
20260506014305 81 115 7.0 8.0 0.00 0.00 0.00 61 1014.7
20260506013804 81 106 6.0 7.0 0.00 0.00 0.00 61 1014.9
20260506013306 81 130 4.0 6.0 0.00 0.00 0.00 61 1015.0
20260506012804 81 151 3.0 9.0 0.00 0.00 0.00 61 1015.1
20260506012307 80 74 4.0 6.0 0.00 0.00 0.00 63 1015.1
20260506011304 80 63 3.0 9.0 0.00 0.00 0.00 63 1015.3
20260506010805 80 32 1.0 8.0 0.00 0.00 0.00 63 1015.3
20260506010305 79 90 4.0 10.0 0.00 0.00 0.00 63 1015.4
20260506005805 79 79 6.0 12.0 0.00 0.00 0.00 63 1015.5
20260506004805 79 80 3.0 10.0 0.00 0.00 0.00 64 1015.8
20260506004304 79 82 9.0 12.0 0.00 0.00 0.00 65 1015.8
20260506003306 78 47 5.0 9.0 0.00 0.00 0.00 66 1015.8
20260506002805 78 129 3.0 9.0 0.00 0.00 0.00 67 1015.8
20260506002306 78 91 7.0 12.0 0.00 0.00 0.00 67 1015.9
20260506001805 78 36 3.0 9.0 0.00 0.00 0.00 69 1016.0
20260506001304 77 71 2.0 9.0 0.00 0.00 0.00 68 1016.0
20260506000805 77 70 5.0 10.0 0.00 0.00 0.00 69 1016.1
20260506000305 77 58 5.0 9.0 0.00 0.00 0.00 69 1016.2
20260505235804 77 47 2.0 5.0 0.00 0.00 0.00 70 1016.2
20260505235305 76 3 0.0 0.0 0.00 0.00 0.00 70 1016.2
20260505234304 76 3 0.0 1.0 0.00 0.00 0.00 70 1016.2
20260505233804 76 61 1.0 1.0 0.00 0.00 0.00 70 1016.2
20260505233304 76 61 1.0 3.0 0.00 0.00 0.00 70 1016.0
20260505232805 75 63 3.0 3.0 0.00 0.00 0.00 70 1016.0
20260505232305 75 64 2.0 5.0 0.00 0.00 0.00 70 1016.0
20260505231805 75 66 2.0 5.0 0.00 0.00 0.00 71 1016.0
20260505231304 74 63 3.0 5.0 0.00 0.00 0.00 71 1016.0
20260505230818 74 61 2.0 3.0 0.00 0.00 0.00 71 1016.0
20260505230304 74 63 1.0 2.0 0.00 0.00 0.00 73 1016.0
20260505225804 72 3 0.0 0.0 0.00 0.00 0.00 76 1015.9
20260505225306 72 3 0.0 0.0 0.00 0.00 0.00 76 1015.9
20260505224305 72 92 2.0 2.0 0.00 0.00 0.00 76 1015.9
20260505223805 72 92 2.0 3.0 0.00 0.00 0.00 76 1015.9
20260505223304 72 93 4.0 6.0 0.00 0.00 0.00 76 1015.8
20260505222804 71 89 3.0 7.0 0.00 0.00 0.00 77 1015.8
20260505222306 71 85 5.0 8.0 0.00 0.00 0.00 77 1015.8
20260505221305 70 107 4.0 7.0 0.00 0.00 0.00 78 1015.7
20260505220805 70 106 4.0 8.0 0.00 0.00 0.00 78 1015.7
20260505220304 70 105 5.0 8.0 0.00 0.00 0.00 80 1015.7
20260505215305 67 17 1.0 6.0 0.00 0.00 0.00 80 1015.6
20260505214804 67 144 6.0 6.0 0.00 0.00 0.00 80 1015.6
20260505214305 67 144 6.0 7.0 0.00 0.00 0.00 80 1015.6
20260505213805 67 113 5.0 9.0 0.00 0.00 0.00 81 1015.5
20260505212804 66 93 3.0 9.0 0.00 0.00 0.00 82 1015.4
20260505212305 65 124 5.0 8.0 0.00 0.00 0.00 83 1015.4
20260505211805 65 108 4.0 7.0 0.00 0.00 0.00 83 1015.3
20260505211304 64 135 3.0 9.0 0.00 0.00 0.00 83 1015.3
20260505210804 64 122 4.0 7.0 0.00 0.00 0.00 83 1015.1
20260505210305 63 112 3.0 6.0 0.00 0.00 0.00 83 1015.1
20260505205804 63 117 3.0 6.0 0.00 0.00 0.00 83 1015.1
20260505204805 63 121 2.0 5.0 0.00 0.00 0.00 82 1014.9
20260505204304 63 112 2.0 7.0 0.00 0.00 0.00 82 1014.9
20260505203805 63 113 3.0 7.0 0.00 0.00 0.00 82 1014.9
20260505202805 63 102 3.0 8.0 0.00 0.00 0.00 82 1014.8
20260505202307 63 117 3.0 7.0 0.00 0.00 0.00 82 1014.8
20260505201804 63 113 5.0 8.0 0.00 0.00 0.00 82 1014.8
20260505201305 63 107 5.0 9.0 0.00 0.00 0.00 81 1014.8
20260505200305 63 118 5.0 9.0 0.00 0.00 0.00 81 1014.8
20260505195805 63 104 4.0 8.0 0.00 0.00 0.00 81 1014.9
20260505195305 63 115 3.0 12.0 0.00 0.00 0.00 81 1014.8
20260505194806 63 99 3.0 10.0 0.00 0.00 0.00 81 1014.8
20260505194304 63 137 6.0 13.0 0.00 0.00 0.00 81 1014.7
20260505193804 63 121 4.0 9.0 0.00 0.00 0.00 81 1014.7
20260505193304 63 136 6.0 12.0 0.00 0.00 0.00 80 1014.6
20260505192805 63 141 6.0 9.0 0.00 0.00 0.00 80 1014.7
20260505192306 63 160 5.0 10.0 0.00 0.00 0.00 80 1014.6
20260505191805 63 150 6.0 13.0 0.00 0.00 0.00 79 1014.6
20260505190806 63 144 5.0 9.0 0.00 0.00 0.00 80 1014.5
20260505190304 63 142 6.0 12.0 0.00 0.00 0.00 80 1014.5
20260505185805 62 150 6.0 9.0 0.00 0.00 0.00 79 1014.4
20260505185305 62 138 4.0 10.0 0.00 0.00 0.00 79 1014.4
20260505184804 62 139 5.0 9.0 0.00 0.00 0.00 79 1014.4
20260505183804 62 141 3.0 7.0 0.00 0.00 0.00 79 1014.3
20260505182804 62 133 2.0 7.0 0.00 0.00 0.00 78 1014.3
20260505181806 62 138 3.0 5.0 0.00 0.00 0.00 78 1014.3
20260505181304 62 146 3.0 7.0 0.00 0.00 0.00 78 1014.3
20260505180305 62 153 3.0 8.0 0.00 0.00 0.00 77 1014.2
20260505175804 62 156 3.0 6.0 0.00 0.00 0.00 77 1014.2
20260505175305 62 144 2.0 6.0 0.00 0.00 0.00 77 1014.2
20260505174805 62 153 3.0 5.0 0.00 0.00 0.00 77 1014.2
20260505174305 62 150 3.0 6.0 0.00 0.00 0.00 76 1014.2
20260505173805 62 159 3.0 6.0 0.00 0.00 0.00 76 1014.2
20260505173304 62 161 5.0 7.0 0.00 0.00 0.00 76 1014.2
20260505172806 62 155 3.0 7.0 0.00 0.00 0.00 75 1014.1
20260505172306 63 153 2.0 5.0 0.00 0.00 0.00 75 1014.1
20260505171805 63 153 3.0 6.0 0.00 0.00 0.00 75 1014.2
20260505171304 63 157 3.0 8.0 0.00 0.00 0.00 74 1014.1
20260505170806 63 160 5.0 7.0 0.00 0.00 0.00 74 1014.1
20260505170306 63 158 4.0 9.0 0.00 0.00 0.00 74 1014.2
20260505165306 63 138 3.0 7.0 0.00 0.00 0.00 74 1014.3
20260505164804 63 150 3.0 7.0 0.00 0.00 0.00 73 1014.3
20260505163805 63 121 1.0 3.0 0.00 0.00 0.00 73 1014.5
20260505163306 63 121 1.0 3.0 0.00 0.00 0.00 73 1014.6
20260505162804 63 121 1.0 3.0 0.00 0.00 0.00 74 1014.7
20260505161805 63 117 3.0 7.0 0.00 0.00 0.00 75 1014.7
20260505161304 63 125 3.0 9.0 0.00 0.00 0.00 75 1014.9
20260505160804 62 147 3.0 7.0 0.00 0.00 0.00 76 1014.9
20260505160304 62 159 5.0 6.0 0.00 0.00 0.00 76 1014.9
20260505153306 63 159 2.0 3.0 0.00 0.00 0.00 76 1015.0
20260505152305 63 159 2.0 3.0 0.00 0.00 0.00 75 1015.1
20260505151806 63 159 1.0 2.0 0.00 0.00 0.00 75 1015.1
20260505151304 63 159 2.0 2.0 0.00 0.00 0.00 75 1015.1
20260505150805 63 159 2.0 5.0 0.00 0.00 0.00 75 1015.2
20260505140304 64 170 5.0 9.0 0.00 0.01 0.00 75 1015.9
20260505130306 65 148 3.0 7.0 0.00 0.01 0.00 77 1016.5
20260505124804 65 110 3.0 7.0 0.00 0.01 0.00 78 1016.5
20260505124304 65 119 2.0 3.0 0.00 0.01 0.00 78 1016.5
20260505123804 65 123 1.0 7.0 0.00 0.01 0.00 79 1016.5
20260505123305 65 121 2.0 3.0 0.00 0.01 0.00 79 1016.5
20260505122804 65 120 2.0 3.0 0.00 0.01 0.00 79 1016.4
20260505122305 65 121 2.0 5.0 0.00 0.01 0.00 80 1016.4
20260505121805 65 123 5.0 8.0 0.00 0.01 0.00 80 1016.4
20260505121304 65 130 3.0 7.0 0.00 0.01 0.00 80 1016.4
20260505120805 65 132 3.0 5.0 0.00 0.01 0.00 81 1016.4
20260505120305 66 110 3.0 6.0 0.00 0.01 0.00 81 1016.5
20260505115805 66 119 3.0 5.0 0.00 0.01 0.00 81 1016.4
20260505115305 66 115 2.0 3.0 0.00 0.01 0.00 81 1016.5
20260505114804 66 117 3.0 6.0 0.00 0.01 0.00 81 1016.4
20260505114304 66 132 2.0 7.0 0.00 0.01 0.00 81 1016.5
20260505113804 66 137 3.0 7.0 0.00 0.01 0.00 81 1016.5
20260505113304 67 135 3.0 7.0 0.00 0.01 0.00 81 1016.5
20260505112805 67 153 3.0 8.0 0.00 0.01 0.00 81 1016.5
20260505112305 67 135 2.0 7.0 0.00 0.01 0.00 81 1016.5
20260505111804 67 132 2.0 5.0 0.00 0.01 0.00 81 1016.5
20260505111304 67 132 3.0 8.0 0.00 0.01 0.00 81 1016.5
20260505110804 67 127 4.0 12.0 0.00 0.01 0.00 81 1016.6
20260505110304 68 137 3.0 9.0 0.00 0.01 0.00 81 1016.6
20260505101804 69 149 5.0 7.0 0.00 0.01 0.00 79 1016.4
20260505101304 69 141 3.0 8.0 0.00 0.01 0.00 79 1016.4
20260505100805 69 155 2.0 6.0 0.00 0.01 0.00 79 1016.4
20260505100304 69 151 2.0 5.0 0.00 0.01 0.00 78 1016.4
20260505095804 70 157 2.0 7.0 0.00 0.01 0.00 78 1016.3
20260505095305 70 156 1.0 2.0 0.00 0.01 0.00 78 1016.2
20260505094804 70 155 2.0 7.0 0.00 0.01 0.00 78 1016.2
20260505094305 70 126 2.0 3.0 0.00 0.01 0.00 77 1016.1
20260505093804 70 124 1.0 5.0 0.00 0.01 0.00 77 1016.0
20260505093305 70 128 4.0 7.0 0.00 0.01 0.00 77 1015.9
20260505092805 70 124 3.0 7.0 0.00 0.01 0.00 77 1015.9
20260505092305 71 110 3.0 6.0 0.00 0.01 0.00 76 1015.8
20260505091804 71 107 3.0 6.0 0.00 0.01 0.00 75 1015.7
20260505091305 71 101 3.0 7.0 0.00 0.01 0.00 75 1015.7
20260505090805 71 111 1.0 3.0 0.00 0.01 0.00 75 1015.6
20260505090304 71 111 2.0 6.0 0.00 0.01 0.00 74 1015.5
20260505085804 72 110 2.0 3.0 0.00 0.01 0.00 74 1015.4
20260505085305 72 111 3.0 8.0 0.00 0.01 0.00 74 1015.3
20260505084805 72 111 3.0 7.0 0.00 0.01 0.00 73 1015.2
20260505084304 72 113 3.0 7.0 0.00 0.01 0.00 73 1015.1
20260505083804 72 114 2.0 6.0 0.00 0.01 0.00 72 1015.0
20260505083305 73 113 3.0 6.0 0.00 0.01 0.00 72 1014.9
20260505082305 73 109 4.0 7.0 0.00 0.01 0.00 72 1014.8
20260505081804 73 121 4.0 8.0 0.00 0.01 0.00 71 1014.7
20260505081304 73 119 3.0 5.0 0.00 0.01 0.00 71 1014.7
20260505080804 74 126 2.0 5.0 0.00 0.01 0.00 70 1014.7
20260505080305 74 126 3.0 8.0 0.00 0.01 0.00 70 1014.7
20260505075804 74 140 4.0 12.0 0.00 0.01 0.00 69 1014.6
20260505075304 74 123 6.0 10.0 0.00 0.01 0.00 69 1014.5
20260505074805 75 108 5.0 9.0 0.00 0.01 0.00 69 1014.5
20260505073804 75 133 5.0 8.0 0.00 0.01 0.00 68 1014.4
20260505073304 76 133 5.0 10.0 0.00 0.01 0.00 67 1014.4
20260505072804 76 134 5.0 7.0 0.00 0.01 0.00 67 1014.3
20260505072305 76 117 5.0 7.0 0.00 0.01 0.00 66 1014.2
20260505071805 77 128 5.0 12.0 0.00 0.01 0.00 66 1014.1
20260505071305 77 131 5.0 12.0 0.00 0.01 0.00 65 1014.1
20260505070305 79 3 0.0 0.0 0.00 0.01 0.00 60 1014.0
20260505065305 79 7 3.0 5.0 0.00 0.01 0.00 60 1013.9
20260505064804 79 158 5.0 5.0 0.00 0.01 0.00 60 1013.7
20260505064305 79 158 5.0 12.0 0.00 0.01 0.00 60 1013.7
20260505063804 79 156 8.0 12.0 0.00 0.01 0.00 60 1013.6
20260505063304 79 140 7.0 13.0 0.00 0.01 0.00 61 1013.6
20260505062804 79 136 6.0 13.0 0.00 0.01 0.00 63 1013.5